TimeCST,TemperatureF,Dew PointF,Humidity,Sea Level PressureIn,VisibilityMPH,Wind Direction,Wind SpeedMPH,Gust SpeedMPH,PrecipitationIn,Events,Conditions,WindDirDegrees,DateUTC
12:56 AM,18.1,-0.9,43,30.38,10.0,NNW,12.7,-,N/A,,Clear,330,2013-01-22 06:56:00
1:56 AM,16.2,2.1,54,30.39,10.0,NNW,5.8,-,N/A,,Clear,330,2013-01-22 07:56:00
2:56 AM,16.2,0.1,49,30.39,10.0,NNW,6.9,-,N/A,,Clear,340,2013-01-22 08:56:00
3:56 AM,16.2,0.1,49,30.40,10.0,North,6.9,-,N/A,,Clear,350,2013-01-22 09:56:00
4:56 AM,16.2,0.1,49,30.41,10.0,North,5.8,-,N/A,,Clear,360,2013-01-22 10:56:00
5:56 AM,16.2,-0.9,47,30.43,10.0,North,5.8,-,N/A,,Scattered Clouds,360,2013-01-22 11:56:00
6:56 AM,15.1,1.0,54,30.45,10.0,North,4.6,-,N/A,,Scattered Clouds,350,2013-01-22 12:56:00
7:56 AM,17.1,1.0,50,30.47,10.0,NNW,5.8,-,N/A,,Clear,330,2013-01-22 13:56:00
8:56 AM,17.1,1.0,50,30.48,10.0,NNW,8.1,-,N/A,,Partly Cloudy,330,2013-01-22 14:56:00
9:56 AM,19.0,0.1,44,30.49,10.0,NNW,6.9,-,N/A,,Scattered Clouds,330,2013-01-22 15:56:00
10:56 AM,21.0,1.0,42,30.48,10.0,West,9.2,-,N/A,,Clear,280,2013-01-22 16:56:00
11:56 AM,22.1,-0.9,37,30.46,10.0,WNW,8.1,-,N/A,,Mostly Cloudy,290,2013-01-22 17:56:00
12:56 PM,22.1,0.1,38,30.44,10.0,NW,9.2,-,N/A,,Mostly Cloudy,320,2013-01-22 18:56:00
1:56 PM,21.0,-0.9,38,30.43,10.0,NW,9.2,-,N/A,,Mostly Cloudy,310,2013-01-22 19:56:00
2:56 PM,21.0,1.0,42,30.44,10.0,West,6.9,-,N/A,,Scattered Clouds,280,2013-01-22 20:56:00
3:56 PM,22.1,0.1,38,30.44,10.0,WNW,8.1,-,N/A,,Overcast,290,2013-01-22 21:56:00
4:56 PM,21.0,1.0,42,30.42,10.0,WNW,4.6,-,N/A,,Overcast,300,2013-01-22 22:56:00
5:56 PM,21.0,1.0,42,30.42,10.0,WNW,3.5,-,N/A,,Overcast,300,2013-01-22 23:56:00
6:56 PM,22.1,3.0,44,30.42,10.0,NW,5.8,-,N/A,,Overcast,310,2013-01-23 00:56:00
7:56 PM,21.0,3.0,46,30.41,10.0,Calm,Calm,-,N/A,,Overcast,0,2013-01-23 01:56:00
8:56 PM,21.0,5.0,50,30.42,10.0,West,3.5,-,N/A,,Overcast,280,2013-01-23 02:56:00
9:56 PM,22.1,7.2,53,30.43,10.0,WNW,5.8,-,N/A,,Overcast,290,2013-01-23 03:56:00
10:56 PM,22.1,8.1,55,30.42,10.0,West,4.6,-,N/A,,Overcast,280,2013-01-23 04:56:00
11:56 PM,22.1,9.1,58,30.42,10.0,WNW,3.5,-,N/A,,Overcast,300,2013-01-23 05:56:00